[[{"header":{"parameterUnit":"m.s-1","parameterCategory":1,"la1":30.2991,"la2":30.254,"lo1":-89.0895,"lo2":-89.0444,"dy":0.0017,"dx":0.0017,"nx":28,"ny":28,"refTime":"2023-08-27T03:00:00:Z","depth":0,"parameterNumber":2,"parameterNumberName":"U-component_of_WINDS"},"data":[0,0,0,0,0,0,0,0,0,0,0,0,0,0,0,0,0,0,0,0,0,0,0,0,0,0,0,0,0,0,0,0,0,0,0,0,0,0,0,0,0,0,0,0,0,0,0,0,0,0,0,0,0,0,0,0,0,0,0.9027,0.9026,0,0.8954,0.8953,0.8952,0.8886,0.8885,0.8884,0.8883,0.8806,0.8805,0.8804,0,0,0,0,0,0,0,0,0,0,0,0,0,0.9108,0.9107,0.9027,0.9026,0.9025,0.8954,0.8953,0.8952,0.8886,0.8885,0.8884,0.8883,0.8807,0.8805,0.8803,0,0,0,0,0,0,0,0,0,0,0,0,0,0.9058,0.9107,0.9027,0.8984,0.8979,0.8954,0.8953,0.8952,0.8886,0.8885,0.8884,0.8883,0.8807,0.8805,0.8803,0.8815,0,0,0.8797,0.8796,0,0,0,0,0,0,0,0,0.9061,0.9055,0.8991,0.8987,0.8982,0.8928,0.8953,0.8906,0.8886,0.8921,0.8883,0.8882,0.8847,0.8842,0.8831,0.8811,0.8808,0.8797,0.8796,0.8795,0.8794,0,0,0,0,0,0,0,0.9064,0.9058,0.8998,0.899,0.8984,0.8967,0.8959,0.8944,0.8892,0.8918,0.8913,0.8906,0.8845,0.8833,0.8829,0.8807,0.8797,0.8795,0.8794,0.8793,0.8793,0.8794,0,0,0,0,0,0,0.9075,0.9061,0.9,0.8996,0.9019,0.8967,0.8957,0.8946,0.8892,0.8883,0.8907,0.8903,0.8837,0.8831,0.8826,0.8836,0.8795,0.8793,0.8792,0.8791,0.8793,0.8794,0,0,0,0,0,0,0.9077,0.907,0.9003,0.9027,0.9017,0.8967,0.8955,0.8945,0.8934,0.8883,0.8873,0.8905,0.8836,0.8828,0.8818,0.8832,0.8792,0.879,0.879,0.8792,0.8793,0.8856,0,0,0,0,0,0,0.908,0.9071,0.9075,0.9028,0.9016,0.8998,0.8956,0.8945,0.8931,0.8925,0.8878,0.887,0.8834,0.8821,0.8816,0.8829,0.8789,0.8789,0.8791,0.8793,0.8853,0.886,0.8866,0,0,0,0,0,0.9083,0.9095,0.9076,0.9069,0.9021,0.8999,0.8992,0.8952,0.8932,0.8936,0.8903,0.8871,0.8831,0.8821,0.8814,0.8827,0.8787,0.879,0.8793,0.885,0.8858,0.8866,0,0,0,0,0,0,0.9145,0.9088,0.9066,0.9064,0.9037,0.8988,0.8991,0.8962,0.894,0.8935,0.8885,0.8875,0.8871,0.8847,0.8837,0.8835,0.8805,0.8807,0.885,0.8858,0.8865,0.8871,0.8787,0,0,0,0,0,0.9159,0.9147,0.9097,0.91,0.9088,0.9042,0.9031,0.9002,0.8972,0.896,0.8926,0.8898,0.8878,0.8867,0.8847,0.8849,0.8838,0.8854,0.886,0.8866,0.8868,0.8868,0.8875,0.8803,0.8803,0.8803,0,0,0.9187,0.9154,0.9149,0.9112,0.9087,0.9075,0.9033,0.9021,0.9012,0.8958,0.8946,0.8921,0.8885,0.8882,0.8878,0.8862,0.8886,0.887,0.8875,0.8873,0.8871,0.8878,0.8884,0.8805,0.8804,0.8804,0,0,0.9232,0.9206,0.9205,0.9182,0.9146,0.9116,0.9116,0.9071,0.9052,0.904,0.9,0.8987,0.8955,0.8932,0.8916,0.8952,0.8922,0.8947,0.8982,0.8983,0.8988,0.8993,0.9007,0.9012,0.8949,0.8949,0.8949,0,0.9271,0.9252,0.9209,0.92,0.9185,0.9136,0.9136,0.9115,0.9074,0.9064,0.9047,0.9006,0.8979,0.8969,0.8978,0.8967,0.8965,0.8952,0.8991,0.8995,0.8999,0.9011,0.9017,0.8952,0.8952,0.8952,0.8951,0,0.9302,0.9289,0.9293,0.9256,0.9241,0.9236,0.9193,0.9182,0.9155,0.9127,0.9115,0.908,0.9053,0.9048,0.9021,0.9035,0.9026,0.9,0.8969,0.901,0.9021,0.9025,0.8957,0.8956,0.8955,0.8954,0,0,0.9384,0.9324,0.9326,0.9309,0.9265,0.9254,0.9247,0.9221,0.9214,0.9187,0.918,0.9154,0.9131,0.9113,0.9082,0.9083,0.9115,0.9057,0.9055,0.907,0.9128,0.9148,0.9154,0.9094,0.9095,0.9095,0.9131,0,0.9422,0.9408,0.937,0.9367,0.9355,0.9309,0.9303,0.9275,0.9248,0.9234,0.9203,0.9187,0.9156,0.9145,0.9143,0.9111,0.9126,0.9108,0.9087,0.9087,0.9098,0.916,0.9181,0.9216,0.9135,0.9136,0.9136,0,0.9465,0.9442,0.9439,0.9397,0.939,0.9386,0.9359,0.9345,0.9313,0.9293,0.9274,0.9241,0.923,0.9202,0.9187,0.9176,0.9165,0.9148,0.9149,0.9145,0.9115,0.9159,0.9227,0.9233,0.9143,0.9142,0.9142,0,0.9526,0.9495,0.9489,0.9475,0.9426,0.9424,0.9403,0.937,0.9356,0.9332,0.9323,0.9298,0.9285,0.9266,0.9226,0.9209,0.9217,0.9184,0.92,0.9201,0.9204,0.9204,0.9272,0.9196,0.9196,0.9196,0.9196,0,0.9573,0.9573,0.9516,0.9512,0.9511,0.9466,0.9466,0.9441,0.9412,0.9402,0.936,0.9351,0.93,0.9285,0.9254,0.9247,0.9241,0.9225,0.9217,0.9229,0.9231,0.9222,0.9219,0.9197,0.9197,0.9197,0.9197,0,0.9642,0.9603,0.9594,0.9548,0.9537,0.9538,0.9498,0.9493,0.9463,0.9452,0.9446,0.94,0.9381,0.934,0.931,0.9289,0.929,0.9274,0.9301,0.9296,0.9314,0.9313,0.9378,0.9384,0.9305,0.9305,0.9306,0,0.9675,0.9674,0.9628,0.9619,0.9601,0.9586,0.9573,0.9529,0.9516,0.948,0.9479,0.9457,0.9437,0.9409,0.9372,0.9349,0.9333,0.9357,0.9329,0.9342,0.9334,0.9335,0.9335,0.9364,0.9365,0.9366,0.9366,0,0.9738,0.9719,0.9702,0.9678,0.9663,0.9642,0.9618,0.9613,0.9563,0.9551,0.9532,0.9517,0.9486,0.9465,0.9436,0.9413,0.9382,0.9376,0.9378,0.9391,0.9407,0.9399,0.9319,0.9374,0.9374,0.9373,0.9373,0.9372,0.979,0.9787,0.9755,0.9737,0.9715,0.9694,0.9687,0.9657,0.964,0.9613,0.9587,0.957,0.9538,0.9496,0.9476,0.9462,0.9446,0.9449,0.945,0.9452,0.9458,0.9409,0.9456,0.9456,0.9456,0.9456,0.9455,0,0.9851,0.9829,0.9812,0.9781,0.9767,0.9739,0.9712,0.9702,0.9688,0.9661,0.9642,0.962,0.9599,0.9561,0.9537,0.9533,0.9518,0.9528,0.9528,0.9524,0.9473,0.9474,0.9541,0.9541,0.9541,0.9541,0.9541,0.9541,0.9882,0.9876,0.9853,0.9836,0.9812,0.9796,0.9783,0.9764,0.9742,0.9719,0.9702,0.9678,0.9646,0.9619,0.9599,0.9588,0.9581,0.9597,0.9581,0.9535,0.9527,0.9519,0.952,0.9595,0.9595,0.9633,0.9633,0.9634]},{"header":{"parameterUnit":"m.s-1","parameterCategory":1,"la1":30.2991,"la2":30.254,"lo1":-89.0895,"lo2":-89.0444,"dy":0.0017,"dx":0.0017,"nx":28,"ny":28,"refTime":"2023-08-27T03:00:00:Z","depth":0,"parameterNumber":3,"parameterNumberName":"V-component_of_WINDS"},"data":[0,0,0,0,0,0,0,0,0,0,0,0,0,0,0,0,0,0,0,0,0,0,0,0,0,0,0,0,0,0,0,0,0,0,0,0,0,0,0,0,0,0,0,0,0,0,0,0,0,0,0,0,0,0,0,0,0,0,-2.6987,-2.6987,0,-2.7035,-2.7036,-2.7037,-2.7003,-2.7002,-2.7,-2.6999,-2.7047,-2.7049,-2.7052,0,0,0,0,0,0,0,0,0,0,0,0,0,-2.6864,-2.6866,-2.6987,-2.6987,-2.6988,-2.7035,-2.7036,-2.7037,-2.7004,-2.7002,-2.7,-2.6998,-2.7046,-2.7049,-2.7052,0,0,0,0,0,0,0,0,0,0,0,0,0,-2.6915,-2.6867,-2.6987,-2.6977,-2.6977,-2.7035,-2.7036,-2.7037,-2.7004,-2.7002,-2.6999,-2.6997,-2.7045,-2.7049,-2.7053,-2.7122,0,0,-2.7065,-2.7067,0,0,0,0,0,0,0,0,-2.6913,-2.692,-2.6978,-2.6978,-2.6978,-2.7011,-2.701,-2.7065,-2.7005,-2.6994,-2.6999,-2.6996,-2.7037,-2.7041,-2.7055,-2.7125,-2.7127,-2.7065,-2.7068,-2.7069,-2.7071,0,0,0,0,0,0,0,-2.6909,-2.6918,-2.7006,-2.6979,-2.6979,-2.697,-2.6975,-2.7021,-2.7027,-2.6994,-2.6992,-2.6998,-2.7036,-2.7051,-2.7056,-2.7127,-2.7065,-2.7069,-2.7071,-2.7073,-2.7257,-2.7259,0,0,0,0,0,0,-2.6907,-2.6915,-2.7004,-2.7007,-2.6939,-2.6974,-2.698,-2.7003,-2.7026,-2.7028,-2.7,-2.6997,-2.7046,-2.7051,-2.7057,-2.7141,-2.7069,-2.7073,-2.7075,-2.7254,-2.7257,-2.726,0,0,0,0,0,0,-2.6904,-2.6915,-2.7002,-2.6961,-2.6971,-2.6979,-2.7005,-2.7005,-2.702,-2.7031,-2.7032,-2.7015,-2.7044,-2.7052,-2.7107,-2.7142,-2.7075,-2.7079,-2.7252,-2.7255,-2.7259,-2.7309,0,0,0,0,0,0,-2.6901,-2.6914,-2.6941,-2.6962,-2.6974,-2.7051,-2.7007,-2.7007,-2.7027,-2.7023,-2.7045,-2.7046,-2.7043,-2.7101,-2.7111,-2.7147,-2.7082,-2.7248,-2.7253,-2.7258,-2.7304,-2.7314,-2.7322,0,0,0,0,0,-2.6896,-2.6952,-2.6942,-2.6953,-2.7007,-2.7054,-2.706,-2.7056,-2.703,-2.7057,-2.7064,-2.7046,-2.7137,-2.7107,-2.7118,-2.7155,-2.7246,-2.7252,-2.7257,-2.73,-2.7312,-2.7322,0,0,0,0,0,0,-2.6935,-2.6955,-2.6944,-2.7009,-2.703,-2.7048,-2.7082,-2.7069,-2.7097,-2.7092,-2.7084,-2.709,-2.7147,-2.7156,-2.7123,-2.7224,-2.7187,-2.7195,-2.7216,-2.7227,-2.7236,-2.7233,-2.7085,0,0,0,0,0,-2.6951,-2.6988,-2.7003,-2.7058,-2.7069,-2.7074,-2.7094,-2.7089,-2.711,-2.7119,-2.713,-2.7151,-2.7184,-2.7206,-2.7237,-2.7305,-2.7309,-2.7336,-2.7345,-2.7353,-2.736,-2.7397,-2.7409,-2.7279,-2.7279,-2.7278,0,0,-2.6985,-2.7,-2.7023,-2.7066,-2.7082,-2.712,-2.7082,-2.7123,-2.7151,-2.7125,-2.7177,-2.7186,-2.7209,-2.7271,-2.7299,-2.7281,-2.7397,-2.736,-2.7366,-2.7369,-2.7404,-2.7416,-2.7427,-2.7282,-2.7282,-2.7281,0,0,-2.7065,-2.708,-2.7128,-2.7145,-2.717,-2.7173,-2.7184,-2.7205,-2.721,-2.7263,-2.7245,-2.7277,-2.7335,-2.7352,-2.7369,-2.7457,-2.7441,-2.7467,-2.7514,-2.7551,-2.7561,-2.757,-2.7602,-2.7613,-2.7474,-2.7474,-2.7474,0,-2.7103,-2.716,-2.7155,-2.7198,-2.7217,-2.7197,-2.7245,-2.7262,-2.7295,-2.7309,-2.7288,-2.7361,-2.7375,-2.7441,-2.7462,-2.7476,-2.7489,-2.7464,-2.756,-2.7569,-2.7577,-2.7608,-2.7619,-2.7477,-2.7477,-2.7476,-2.7476,0,-2.7206,-2.7245,-2.7281,-2.7315,-2.7339,-2.7384,-2.7386,-2.741,-2.7403,-2.7408,-2.7463,-2.7479,-2.7513,-2.7529,-2.7522,-2.7594,-2.7582,-2.7561,-2.7524,-2.7593,-2.7621,-2.7633,-2.7482,-2.748,-2.748,-2.7479,0,0,-2.7311,-2.7343,-2.7356,-2.7372,-2.7398,-2.7428,-2.7473,-2.7507,-2.7529,-2.7552,-2.759,-2.764,-2.7621,-2.7639,-2.7634,-2.7666,-2.7735,-2.7641,-2.7641,-2.7658,-2.7816,-2.7832,-2.7846,-2.7725,-2.7727,-2.7729,-2.7814,0,-2.7394,-2.7473,-2.747,-2.7543,-2.758,-2.7561,-2.76,-2.762,-2.7626,-2.7657,-2.7663,-2.7699,-2.7671,-2.7682,-2.7713,-2.772,-2.7767,-2.7714,-2.7759,-2.7761,-2.7755,-2.786,-2.7877,-2.7957,-2.7825,-2.7827,-2.7828,0,-2.75,-2.7529,-2.7606,-2.7628,-2.7643,-2.7678,-2.771,-2.774,-2.7763,-2.7765,-2.7786,-2.7776,-2.7821,-2.7783,-2.7845,-2.781,-2.7828,-2.7835,-2.7838,-2.7842,-2.7799,-2.7868,-2.7983,-2.7995,-2.7846,-2.7844,-2.7843,0,-2.757,-2.7628,-2.7682,-2.7695,-2.7722,-2.7747,-2.7759,-2.7779,-2.7801,-2.7828,-2.7842,-2.7874,-2.7892,-2.7917,-2.7916,-2.7888,-2.7979,-2.7941,-2.7982,-2.7983,-2.8002,-2.8001,-2.8122,-2.8014,-2.8014,-2.8013,-2.8013,0,-2.7662,-2.771,-2.7714,-2.7747,-2.78,-2.7796,-2.7849,-2.7859,-2.7877,-2.7912,-2.7897,-2.7929,-2.7926,-2.7959,-2.7958,-2.801,-2.8018,-2.8021,-2.802,-2.8023,-2.8022,-2.8035,-2.8029,-2.8017,-2.8016,-2.8015,-2.8015,0,-2.7749,-2.7753,-2.7811,-2.7832,-2.7838,-2.7877,-2.7894,-2.7925,-2.793,-2.7974,-2.7984,-2.7992,-2.803,-2.8031,-2.8074,-2.8074,-2.8138,-2.813,-2.813,-2.8129,-2.8171,-2.8167,-2.8304,-2.8322,-2.8202,-2.8203,-2.8204,0,-2.7808,-2.7845,-2.787,-2.7892,-2.7906,-2.7942,-2.7964,-2.7962,-2.7985,-2.8014,-2.8042,-2.8079,-2.8108,-2.817,-2.8179,-2.8212,-2.8206,-2.8252,-2.8211,-2.8212,-2.8207,-2.8205,-2.8209,-2.826,-2.8261,-2.8262,-2.8263,0,-2.7912,-2.7913,-2.7945,-2.7979,-2.8006,-2.8032,-2.8056,-2.8075,-2.8076,-2.8103,-2.8142,-2.8165,-2.821,-2.8246,-2.8279,-2.8291,-2.8277,-2.8276,-2.8287,-2.829,-2.8289,-2.8291,-2.8153,-2.8273,-2.8272,-2.8271,-2.8271,-2.827,-2.7987,-2.8019,-2.8042,-2.8079,-2.8097,-2.8121,-2.8152,-2.8161,-2.8194,-2.8231,-2.8227,-2.8271,-2.8292,-2.8335,-2.835,-2.8383,-2.8368,-2.8384,-2.8388,-2.8392,-2.8397,-2.8284,-2.8389,-2.8389,-2.8389,-2.8388,-2.8388,0,-2.8091,-2.8105,-2.8139,-2.8174,-2.8203,-2.8189,-2.8215,-2.824,-2.8279,-2.8301,-2.8331,-2.8376,-2.8412,-2.8424,-2.8459,-2.8483,-2.8478,-2.8493,-2.8491,-2.8494,-2.8409,-2.8396,-2.8496,-2.8496,-2.8496,-2.8496,-2.8496,-2.8496,-2.8149,-2.8202,-2.8206,-2.8269,-2.8282,-2.8325,-2.8342,-2.8363,-2.8381,-2.8432,-2.8462,-2.847,-2.8488,-2.8524,-2.8557,-2.8559,-2.8573,-2.859,-2.859,-2.8511,-2.85,-2.849,-2.8477,-2.8593,-2.8593,-2.8673,-2.8673,-2.8674]}]]